Sturgis, MI

2:35 AM EDT on March 25, 2017 (GMT -0400)
Kirsch Municipal

Weather History for KIRS - April, 2013

Change the Weather History Date:

Tuesday, April 30, 2013

  Actual Average (KHAI) Record (KHAI)
Temperature  
Mean Temperature 66 °F -  
Max Temperature 77 °F 65 °F 86 °F (1962)
Min Temperature 55 °F 42 °F 28 °F (1969)
Cooling Degree Days 1    
Growing Degree Days 16 (Base 50)    
Moisture  
Dew Point 55 °F    
Average Humidity 72    
Maximum Humidity 88    
Minimum Humidity 57    
Precipitation  
Precipitation 0.00 in - - ()
Sea Level Pressure  
Sea Level Pressure 29.95 in    
Wind  
Wind Speed 11 mph (South)    
Max Wind Speed 21 mph    
Max Gust Speed 28 mph    
Visibility 10 miles    
Events      
Averages and records for this station are not official NWS values.
T = Trace of Precipitation, MM = Missing Value Source: NWS Daily Summary

Daily Weather History Graph

Daily Weather History Graph

Search for Another Location

Airport or City:

Trip Planner

Search our weather history database for the weather conditions in past years. The results will help you decide how hot, cold, wet, or windy it might be!

Date:

Astronomy

Apr. 30, 2013 Rise Set
Actual Time 6:39 AM EDT 8:39 PM EDT
Civil Twilight 6:08 AM EDT 9:09 PM EDT
Nautical Twilight 5:31 AM EDT 9:46 PM EDT
Astronomical Twilight 4:51 AM EDT 10:27 PM EDT
Moon 1:02 AM EDT (4/30) 11:06 AM EDT (4/30)
Length of Visible Light 15h 00m
Length of Day
14h 00m
Waning Gibbous, 70% of the Moon is Illuminated
Apr 30
Waning Gibbous
May 2
Last Quarter
May 9
New
May 18
First Quarter
May 25
Full

Hourly Weather History & Observations

Time (EDT) Temp. Dew Point Humidity Pressure Visibility Wind Dir Wind Speed Gust Speed Precip Events Conditions
12:15 AM 57.2 °F 51.8 °F 82% 29.91 in 10.0 mi South 6.9 mph - N/A   Clear
12:35 AM 57.2 °F 51.8 °F 82% 29.92 in 10.0 mi SSE 5.8 mph - N/A   Clear
12:55 AM 57.2 °F 51.8 °F 82% 29.92 in 10.0 mi South 5.8 mph - N/A   Clear
1:15 AM 57.2 °F 51.8 °F 82% 29.92 in 10.0 mi South 5.8 mph - N/A   Clear
1:34 AM 57.2 °F 51.8 °F 82% 29.92 in 10.0 mi South 8.1 mph - N/A   Clear
1:55 AM 57.2 °F 51.8 °F 82% 29.92 in 10.0 mi South 8.1 mph - N/A   Clear
2:15 AM 57.2 °F 51.8 °F 82% 29.93 in 10.0 mi South 9.2 mph - N/A   Clear
2:34 AM 55.4 °F 51.8 °F 88% 29.93 in 10.0 mi South 8.1 mph - N/A   Clear
2:55 AM 57.2 °F 51.8 °F 82% 29.93 in 10.0 mi South 10.4 mph - N/A   Clear
3:15 AM 57.2 °F 51.8 °F 82% 29.93 in 10.0 mi South 10.4 mph - N/A   Clear
3:34 AM 57.2 °F 51.8 °F 82% 29.92 in 10.0 mi South 10.4 mph - N/A   Clear
3:55 AM 55.4 °F 51.8 °F 88% 29.92 in 10.0 mi South 8.1 mph - N/A   Clear
4:15 AM 55.4 °F 51.8 °F 88% 29.92 in 10.0 mi South 8.1 mph - N/A   Clear
4:34 AM 55.4 °F 51.8 °F 88% 29.92 in 10.0 mi South 11.5 mph - N/A   Clear
4:55 AM 55.4 °F 51.8 °F 88% 29.91 in 10.0 mi South 12.7 mph - N/A   Clear
5:15 AM 55.4 °F 51.8 °F 88% 29.89 in 10.0 mi South 15.0 mph - N/A   Clear
5:34 AM 55.4 °F 51.8 °F 88% 29.91 in 10.0 mi South 11.5 mph - N/A   Clear
5:55 AM 55.4 °F 50.0 °F 82% 29.92 in 10.0 mi South 11.5 mph - N/A   Clear
6:15 AM 55.4 °F 50.0 °F 82% 29.92 in 10.0 mi South 9.2 mph 18.4 mph N/A   Clear
6:34 AM 55.4 °F 50.0 °F 82% 29.92 in 10.0 mi South 12.7 mph - N/A   Clear
6:55 AM 55.4 °F 50.0 °F 82% 29.92 in 10.0 mi South 12.7 mph - N/A   Clear
7:15 AM 55.4 °F 50.0 °F 82% 29.93 in 7.0 mi South 13.8 mph 17.3 mph N/A   Scattered Clouds
7:35 AM 57.2 °F 51.8 °F 82% 29.93 in 10.0 mi South 15.0 mph - N/A   Clear
7:55 AM 57.2 °F 51.8 °F 82% 29.93 in 10.0 mi South 12.7 mph 18.4 mph N/A   Clear
8:15 AM 57.2 °F 51.8 °F 82% 29.93 in 10.0 mi South 13.8 mph 18.4 mph N/A   Clear
8:35 AM 60.8 °F 51.8 °F 72% 29.94 in 10.0 mi South 13.8 mph - N/A   Scattered Clouds
8:55 AM 60.8 °F 51.8 °F 72% 29.93 in 10.0 mi South 15.0 mph 20.7 mph N/A   Scattered Clouds
9:15 AM 60.8 °F 51.8 °F 72% 29.95 in 10.0 mi South 15.0 mph - N/A   Clear
9:35 AM 60.8 °F 51.8 °F 72% 29.94 in 10.0 mi South 11.5 mph 23.0 mph N/A   Clear
9:55 AM 60.8 °F 51.8 °F 72% 29.95 in 10.0 mi South 12.7 mph - N/A   Clear
10:14 AM 62.6 °F 53.6 °F 72% 29.94 in 10.0 mi South 15.0 mph 19.6 mph N/A   Clear
10:35 AM 62.6 °F 53.6 °F 72% 29.94 in 10.0 mi South 16.1 mph - N/A   Scattered Clouds
10:55 AM 62.6 °F 53.6 °F 72% 29.95 in 10.0 mi South 12.7 mph 18.4 mph N/A   Mostly Cloudy
11:14 AM 62.6 °F 53.6 °F 72% 29.97 in 10.0 mi South 8.1 mph 17.3 mph N/A   Overcast
11:35 AM 64.4 °F 55.4 °F 73% 29.98 in 10.0 mi SSE 6.9 mph - N/A   Mostly Cloudy
11:55 AM 64.4 °F 55.4 °F 73% 29.98 in 10.0 mi SSE 9.2 mph - N/A   Scattered Clouds
12:14 PM 66.2 °F 55.4 °F 68% 29.97 in 10.0 mi SSE 11.5 mph 17.3 mph N/A   Clear
12:35 PM 66.2 °F 55.4 °F 68% 29.97 in 10.0 mi SSE 13.8 mph - N/A   Clear
12:55 PM 69.8 °F 57.2 °F 64% 29.96 in 10.0 mi SSE 17.3 mph 23.0 mph N/A   Clear
1:14 PM 69.8 °F 55.4 °F 60% 29.96 in 10.0 mi South 16.1 mph 20.7 mph N/A   Clear
1:35 PM 69.8 °F 57.2 °F 64% 29.95 in 10.0 mi South 15.0 mph 20.7 mph N/A   Clear
1:55 PM 69.8 °F 57.2 °F 64% 29.95 in 10.0 mi South 16.1 mph 21.9 mph N/A   Clear
2:14 PM 71.6 °F 57.2 °F 60% 29.95 in 10.0 mi South 17.3 mph 21.9 mph N/A   Clear
2:35 PM 71.6 °F 57.2 °F 60% 29.95 in 10.0 mi SSE 18.4 mph 26.5 mph N/A   Clear
2:55 PM 73.4 °F 59.0 °F 61% 29.94 in 10.0 mi South 18.4 mph 24.2 mph N/A   Clear
3:14 PM 73.4 °F 59.0 °F 61% 29.95 in 10.0 mi South 18.4 mph 23.0 mph N/A   Clear
3:35 PM 75.2 °F 59.0 °F 57% 29.94 in 10.0 mi South 19.6 mph 27.6 mph N/A   Clear
3:55 PM 75.2 °F 59.0 °F 57% 29.94 in 10.0 mi South 16.1 mph - N/A   Clear
4:15 PM 75.2 °F 59.0 °F 57% 29.93 in 10.0 mi South 17.3 mph 23.0 mph N/A   Clear
4:35 PM 75.2 °F 60.8 °F 61% 29.93 in 10.0 mi South 13.8 mph 25.3 mph N/A   Clear
4:55 PM 77.0 °F 60.8 °F 57% 29.93 in 10.0 mi South 16.1 mph 21.9 mph N/A   Clear
5:14 PM 75.2 °F 59.0 °F 57% 29.93 in 10.0 mi South 19.6 mph 24.2 mph N/A   Clear
5:35 PM 75.2 °F 60.8 °F 61% 29.93 in 10.0 mi South 20.7 mph - N/A   Clear
5:54 PM 75.2 °F 60.8 °F 61% 29.94 in 10.0 mi South 17.3 mph 21.9 mph N/A   Clear
6:15 PM 75.2 °F 60.8 °F 61% 29.94 in 10.0 mi South 17.3 mph - N/A   Clear
6:35 PM 75.2 °F 59.0 °F 57% 29.95 in 10.0 mi South 19.6 mph 25.3 mph N/A   Clear
6:54 PM 75.2 °F 59.0 °F 57% 29.95 in 10.0 mi South 15.0 mph 24.2 mph N/A   Clear
7:15 PM 75.2 °F 60.8 °F 61% 29.95 in 10.0 mi South 13.8 mph 21.9 mph N/A   Clear
7:35 PM 73.4 °F 59.0 °F 61% 29.95 in 10.0 mi South 15.0 mph 21.9 mph N/A   Clear
8:15 PM 73.4 °F 59.0 °F 61% 29.97 in 10.0 mi South 11.5 mph - N/A   Clear
8:34 PM 71.6 °F 59.0 °F 64% 29.97 in 10.0 mi South 8.1 mph - N/A   Clear
8:54 PM 71.6 °F 59.0 °F 64% 29.99 in 10.0 mi South 6.9 mph - N/A   Clear
9:15 PM 69.8 °F 59.0 °F 68% 29.99 in 10.0 mi South 6.9 mph - N/A   Clear
9:35 PM 69.8 °F 59.0 °F 68% 30.00 in 10.0 mi SSE 6.9 mph - N/A   Clear
9:54 PM 68.0 °F 59.0 °F 73% 30.00 in 10.0 mi SSE 5.8 mph - N/A   Clear
10:15 PM 68.0 °F 57.2 °F 68% 30.01 in 10.0 mi SSE 4.6 mph - N/A   Clear
10:35 PM 68.0 °F 57.2 °F 68% 30.02 in 10.0 mi SSE 5.8 mph - N/A   Clear
10:54 PM 66.2 °F 57.2 °F 73% 30.02 in 10.0 mi SSE 5.8 mph - N/A   Clear
11:15 PM 66.2 °F 55.4 °F 68% 30.02 in 10.0 mi South 6.9 mph - N/A   Clear
11:35 PM 66.2 °F 55.4 °F 68% 30.03 in 10.0 mi SSE 5.8 mph - N/A   Clear
11:54 PM 64.4 °F 55.4 °F 73% 30.03 in 10.0 mi South 8.1 mph - N/A   Clear